MQC9210 FACT-FYWH

Flight info

Callsign MQC9210
Flight time 1h 47m
Altitude 35000
Route KODES1A KODES UN186 NEVAR
Aircraft B738/M-SDE2E3FGHIRWXY/LB1

Departure

Time 2026-04-25 18:53
Airport Cape Town International Airport (FACT)

Arrival

Time 2026-04-25 20:40
Airport Hosea Kutako International Airport (FYWH)
Time Latitude Longitude Altitude Speed Heading
2026-04-25 18:30 -33.96936 18.60001 154 ft 0 kts 75°
2026-04-25 18:40 -33.96941 18.59975 154 ft 4 kts 88°
2026-04-25 18:40 -33.96938 18.59944 154 ft 4 kts 110°
2026-04-25 18:40 -33.96925 18.59916 154 ft 4 kts 134°
2026-04-25 18:41 -33.96906 18.59899 154 ft 2 kts 164°
2026-04-25 18:41 -33.96905 18.59899 154 ft 4 kts 164°
2026-04-25 18:47 -33.96912 18.59901 154 ft 2 kts 164°
2026-04-25 18:47 -33.96960 18.59918 154 ft 13 kts 164°
2026-04-25 18:47 -33.97066 18.59954 154 ft 17 kts 164°
2026-04-25 18:47 -33.97178 18.59977 154 ft 16 kts 168°
2026-04-25 18:48 -33.97295 18.60013 154 ft 19 kts 165°
2026-04-25 18:48 -33.97427 18.60055 154 ft 19 kts 165°
2026-04-25 18:48 -33.97550 18.60112 154 ft 19 kts 151°
2026-04-25 18:48 -33.97667 18.60176 154 ft 18 kts 159°
2026-04-25 18:49 -33.97785 18.60222 154 ft 17 kts 162°
2026-04-25 18:49 -33.97899 18.60268 153 ft 17 kts 160°
2026-04-25 18:49 -33.98007 18.60315 153 ft 16 kts 160°
2026-04-25 18:49 -33.98111 18.60361 153 ft 16 kts 160°
2026-04-25 18:50 -33.98212 18.60403 153 ft 15 kts 162°
2026-04-25 18:50 -33.98312 18.60447 153 ft 16 kts 160°
2026-04-25 18:50 -33.98418 18.60495 153 ft 16 kts 160°
2026-04-25 18:50 -33.98521 18.60540 153 ft 15 kts 160°
2026-04-25 18:51 -33.98619 18.60584 153 ft 15 kts 160°
2026-04-25 18:51 -33.98682 18.60612 152 ft 14 kts 160°
2026-04-25 18:51 -33.98784 18.60665 152 ft 8 kts 138°
2026-04-25 18:51 -33.98789 18.60749 152 ft 14 kts 76°
2026-04-25 18:52 -33.98747 18.60850 153 ft 14 kts 34°
2026-04-25 18:52 -33.98656 18.60847 152 ft 15 kts 346°
2026-04-25 18:52 -33.98359 18.60752 153 ft 76 kts 345°
2026-04-25 18:52 -33.97655 18.60526 152 ft 131 kts 344°
2026-04-25 18:53 -33.96695 18.60198 445 ft 149 kts 343°
2026-04-25 18:53 -33.95628 18.59844 816 ft 171 kts 343°
2026-04-25 18:53 -33.94413 18.59444 1249 ft 184 kts 343°
2026-04-25 18:53 -33.93223 18.59051 2171 ft 175 kts 343°
2026-04-25 18:54 -33.90815 18.57608 2765 ft 223 kts 311°
2026-04-25 18:54 -33.89840 18.56041 3118 ft 243 kts 306°
2026-04-25 18:54 -33.88793 18.54412 3797 ft 248 kts 320°
2026-04-25 18:55 -33.87344 18.53322 4675 ft 245 kts 330°
2026-04-25 18:55 -33.85851 18.52321 5439 ft 247 kts 329°
2026-04-25 18:55 -33.84269 18.51475 6187 ft 252 kts 343°
2026-04-25 18:55 -33.82512 18.51291 6926 ft 258 kts 358°
2026-04-25 18:56 -33.80713 18.51635 7604 ft 267 kts 13°
2026-04-25 18:56 -33.79028 18.52686 8279 ft 278 kts 27°
2026-04-25 18:56 -33.77430 18.54025 8995 ft 281 kts 29°
2026-04-25 18:56 -33.75826 18.55386 9697 ft 284 kts 28°
2026-04-25 18:57 -33.74183 18.56730 10266 ft 291 kts 27°
2026-04-25 18:57 -33.72441 18.58136 10422 ft 313 kts 28°
2026-04-25 18:57 -33.70579 18.59645 10580 ft 333 kts 28°
2026-04-25 18:57 -33.69927 18.60176 10626 ft 339 kts 28°
2026-04-25 18:58 -33.66580 18.62928 11203 ft 358 kts 29°
2026-04-25 18:58 -33.62433 18.66348 12406 ft 364 kts 29°
2026-04-25 18:58 -33.60326 18.68054 13012 ft 366 kts 25°
2026-04-25 18:59 -33.55508 18.69520 14153 ft 358 kts
2026-04-25 18:59 -33.50502 18.69994 15339 ft 364 kts
2026-04-25 19:00 -33.45424 18.70805 16520 ft 371 kts
2026-04-25 19:00 -33.42857 18.71266 17096 ft 374 kts
2026-04-25 19:01 -33.37659 18.72127 18208 ft 380 kts
2026-04-25 19:01 -33.35025 18.72533 18696 ft 383 kts
2026-04-25 19:01 -33.32377 18.72931 19207 ft 384 kts
2026-04-25 19:01 -33.29718 18.73327 19745 ft 385 kts
2026-04-25 19:02 -33.24373 18.74119 20766 ft 389 kts
2026-04-25 19:02 -33.21682 18.74519 21271 ft 391 kts
2026-04-25 19:02 -33.18975 18.74920 21757 ft 392 kts
2026-04-25 19:03 -33.15338 18.75453 22386 ft 395 kts
2026-04-25 19:03 -33.10799 18.75499 23131 ft 391 kts 350°
2026-04-25 19:03 -33.08100 18.75114 23569 ft 391 kts 346°
2026-04-25 19:04 -33.02758 18.73856 24272 ft 394 kts 343°
2026-04-25 19:04 -33.00064 18.73191 24610 ft 396 kts 344°
2026-04-25 19:05 -32.94600 18.71979 25260 ft 403 kts 345°
2026-04-25 19:05 -32.89037 18.70886 25893 ft 408 kts 345°
2026-04-25 19:05 -32.86224 18.70359 26218 ft 410 kts 345°
2026-04-25 19:06 -32.83399 18.69836 26521 ft 412 kts 345°
2026-04-25 19:06 -32.77688 18.68785 27065 ft 418 kts 345°
2026-04-25 19:06 -32.74805 18.68254 27349 ft 421 kts 345°
2026-04-25 19:07 -32.68984 18.67182 27911 ft 426 kts 345°
2026-04-25 19:07 -32.66049 18.66642 28153 ft 428 kts 345°
2026-04-25 19:08 -32.60133 18.65553 28651 ft 432 kts 344°
2026-04-25 19:08 -32.57150 18.65004 28871 ft 435 kts 344°
2026-04-25 19:09 -32.49134 18.63532 29494 ft 441 kts 344°
2026-04-25 19:09 -32.47123 18.63163 29714 ft 441 kts 344°
2026-04-25 19:09 -32.40062 18.61874 30465 ft 439 kts 343°
2026-04-25 19:10 -32.37036 18.61321 30726 ft 440 kts 343°
2026-04-25 19:10 -32.34025 18.60771 30996 ft 440 kts 342°
2026-04-25 19:10 -32.31001 18.60218 31279 ft 439 kts 342°
2026-04-25 19:10 -32.27984 18.59668 31568 ft 439 kts 341°
2026-04-25 19:11 -32.24968 18.59118 31846 ft 438 kts 341°
2026-04-25 19:11 -32.21952 18.58567 32080 ft 439 kts 341°
2026-04-25 19:11 -32.18938 18.58017 32333 ft 439 kts 340°
2026-04-25 19:11 -32.15921 18.57468 32625 ft 438 kts 340°
2026-04-25 19:12 -32.12912 18.56921 32905 ft 437 kts 340°
2026-04-25 19:12 -32.09905 18.56374 33158 ft 437 kts 339°
2026-04-25 19:12 -32.06903 18.55828 33421 ft 436 kts 339°
2026-04-25 19:12 -32.03903 18.55282 33691 ft 436 kts 339°
2026-04-25 19:13 -32.00912 18.54739 33964 ft 435 kts 338°
2026-04-25 19:13 -31.97927 18.54197 34184 ft 434 kts 338°
2026-04-25 19:13 -31.94941 18.53655 34376 ft 434 kts 338°
2026-04-25 19:13 -31.91955 18.53113 34596 ft 434 kts 338°
2026-04-25 19:14 -31.88973 18.52573 34830 ft 433 kts 338°
2026-04-25 19:14 -31.86961 18.52209 34980 ft 432 kts 338°
2026-04-25 19:14 -31.83008 18.51490 35014 ft 437 kts 338°
2026-04-25 19:15 -31.76992 18.50400 35034 ft 437 kts 338°
2026-04-25 19:15 -31.71031 18.49335 35027 ft 430 kts 338°
2026-04-25 19:16 -31.65132 18.48273 35042 ft 428 kts 338°
2026-04-25 19:16 -31.59239 18.47208 35038 ft 428 kts 338°
2026-04-25 19:17 -31.53345 18.46145 35045 ft 429 kts 338°
2026-04-25 19:17 -31.47438 18.45083 35037 ft 430 kts 338°
2026-04-25 19:18 -31.41516 18.44020 35041 ft 431 kts 338°
2026-04-25 19:18 -31.35577 18.42956 35038 ft 432 kts 338°
2026-04-25 19:19 -31.29626 18.41892 35038 ft 433 kts 338°
2026-04-25 19:19 -31.23664 18.40827 35050 ft 434 kts 338°
2026-04-25 19:20 -31.17680 18.39759 35044 ft 435 kts 338°
2026-04-25 19:20 -31.11681 18.38690 35037 ft 437 kts 338°
2026-04-25 19:21 -31.05671 18.37621 35050 ft 437 kts 338°
2026-04-25 19:21 -30.96649 18.36020 35045 ft 437 kts 338°
2026-04-25 19:22 -30.90634 18.34953 35044 ft 437 kts 338°
2026-04-25 19:23 -30.81614 18.33356 35039 ft 437 kts 338°
2026-04-25 19:23 -30.72589 18.31760 35034 ft 437 kts 338°
2026-04-25 19:24 -30.66581 18.30700 35034 ft 437 kts 338°
2026-04-25 19:25 -30.54543 18.28578 35044 ft 438 kts 338°
2026-04-25 19:25 -30.48518 18.27518 35039 ft 438 kts 338°
2026-04-25 19:26 -30.42494 18.26458 35042 ft 438 kts 338°
2026-04-25 19:26 -30.36469 18.25400 35035 ft 438 kts 338°
2026-04-25 19:27 -30.31464 18.24522 35040 ft 437 kts 338°
2026-04-25 19:27 -30.24469 18.23294 35036 ft 438 kts 338°
2026-04-25 19:28 -30.18457 18.22243 35047 ft 434 kts 338°
2026-04-25 19:28 -30.12479 18.21199 35042 ft 435 kts 338°
2026-04-25 19:29 -30.06472 18.20145 35031 ft 438 kts 338°
2026-04-25 19:29 -30.00433 18.19087 35044 ft 440 kts 339°
2026-04-25 19:30 -29.94356 18.18028 35026 ft 443 kts 339°
2026-04-25 19:30 -29.88250 18.16967 35029 ft 445 kts 339°
2026-04-25 19:31 -29.82134 18.15907 35030 ft 444 kts 339°
2026-04-25 19:31 -29.76020 18.14847 35030 ft 444 kts 339°
2026-04-25 19:32 -29.69912 18.13789 35028 ft 444 kts 339°
2026-04-25 19:32 -29.65833 18.13082 35025 ft 443 kts 339°
2026-04-25 19:33 -29.57723 18.11680 35036 ft 442 kts 339°
2026-04-25 19:33 -29.51646 18.10631 35029 ft 441 kts 339°
2026-04-25 19:34 -29.45606 18.09590 35028 ft 439 kts 339°
2026-04-25 19:34 -29.39569 18.08548 35030 ft 439 kts 339°
2026-04-25 19:35 -29.33534 18.07507 35036 ft 439 kts 339°
2026-04-25 19:35 -29.27492 18.06468 35031 ft 439 kts 339°
2026-04-25 19:36 -29.21439 18.05428 35025 ft 440 kts 339°
2026-04-25 19:36 -29.15385 18.04390 35021 ft 441 kts 339°
2026-04-25 19:37 -29.09266 18.03340 35023 ft 442 kts 339°
2026-04-25 19:37 -29.03219 18.02306 35019 ft 443 kts 340°
2026-04-25 19:38 -28.97111 18.01262 35028 ft 444 kts 340°
2026-04-25 19:38 -28.90983 18.00215 35017 ft 445 kts 340°
2026-04-25 19:39 -28.84809 17.99163 35034 ft 446 kts 340°
2026-04-25 19:39 -28.78706 17.98127 35041 ft 444 kts 340°
2026-04-25 19:40 -28.72570 17.97082 35015 ft 446 kts 340°
2026-04-25 19:40 -28.66378 17.96029 35013 ft 447 kts 340°
2026-04-25 19:41 -28.60220 17.94984 35014 ft 447 kts 340°
2026-04-25 19:41 -28.56149 17.94294 35022 ft 447 kts 340°
2026-04-25 19:42 -28.47904 17.92898 35018 ft 447 kts 340°
2026-04-25 19:42 -28.41750 17.91855 35027 ft 447 kts 340°
2026-04-25 19:43 -28.35595 17.90811 35018 ft 447 kts 340°
2026-04-25 19:43 -28.29441 17.89770 35013 ft 447 kts 340°
2026-04-25 19:44 -28.23288 17.88761 35011 ft 449 kts 342°
2026-04-25 19:44 -28.17011 17.88208 35023 ft 455 kts 346°
2026-04-25 19:45 -28.10692 17.87841 35027 ft 455 kts 346°
2026-04-25 19:45 -28.04379 17.87387 35025 ft 455 kts 345°
2026-04-25 19:46 -27.98059 17.86897 35030 ft 456 kts 345°
2026-04-25 19:46 -27.91727 17.86407 35023 ft 457 kts 345°
2026-04-25 19:47 -27.85383 17.85918 35022 ft 458 kts 345°
2026-04-25 19:47 -27.79064 17.85431 35037 ft 458 kts 346°
2026-04-25 19:48 -27.72689 17.84941 35027 ft 460 kts 346°
2026-04-25 19:48 -27.66303 17.84450 35025 ft 460 kts 346°
2026-04-25 19:49 -27.62024 17.84122 35023 ft 461 kts 346°
2026-04-25 19:49 -27.53493 17.83468 35015 ft 462 kts 346°
2026-04-25 19:50 -27.44798 17.83460 35017 ft 474 kts 354°
2026-04-25 19:51 -27.38201 17.84298 35017 ft 479 kts 358°
2026-04-25 19:51 -27.31603 17.85291 35018 ft 478 kts 357°
2026-04-25 19:52 -27.25006 17.86123 35012 ft 476 kts 356°
2026-04-25 19:52 -27.18421 17.86840 35012 ft 475 kts 356°
2026-04-25 19:53 -27.11837 17.87526 35012 ft 475 kts 356°
2026-04-25 19:53 -27.05249 17.88217 35008 ft 475 kts 356°
2026-04-25 19:54 -26.98671 17.88913 35008 ft 475 kts 356°
2026-04-25 19:54 -26.92093 17.89612 35008 ft 474 kts 356°
2026-04-25 19:55 -26.85524 17.90309 35014 ft 474 kts 356°
2026-04-25 19:55 -26.78954 17.91005 35015 ft 474 kts 356°
2026-04-25 19:56 -26.72393 17.91699 35014 ft 473 kts 356°
2026-04-25 19:56 -26.65835 17.92391 34998 ft 473 kts 356°
2026-04-25 19:57 -26.59282 17.93083 35000 ft 473 kts 356°
2026-04-25 19:57 -26.52727 17.93774 35017 ft 473 kts 356°
2026-04-25 19:58 -26.46181 17.94463 35021 ft 473 kts 356°
2026-04-25 19:58 -26.39629 17.95151 35013 ft 473 kts 356°
2026-04-25 19:59 -26.33074 17.95839 35016 ft 473 kts 356°
2026-04-25 19:59 -26.26525 17.96527 35011 ft 473 kts 356°
2026-04-25 20:00 -26.19976 17.97213 35010 ft 473 kts 356°
2026-04-25 20:00 -26.13431 17.97899 35009 ft 472 kts 356°
2026-04-25 20:01 -26.03628 17.98924 35017 ft 471 kts 356°
2026-04-25 20:01 -25.97101 17.99605 35013 ft 471 kts 356°
2026-04-25 20:02 -25.90583 18.00284 35011 ft 470 kts 357°
2026-04-25 20:02 -25.84076 18.00962 35017 ft 469 kts 357°
2026-04-25 20:03 -25.77569 18.01639 35012 ft 469 kts 357°
2026-04-25 20:03 -25.71072 18.02314 35013 ft 469 kts 357°
2026-04-25 20:04 -25.64583 18.02988 35011 ft 468 kts 357°
2026-04-25 20:04 -25.58098 18.03660 35019 ft 468 kts 357°
2026-04-25 20:05 -25.51618 18.04331 35012 ft 468 kts 357°
2026-04-25 20:05 -25.45140 18.05002 35019 ft 467 kts 357°
2026-04-25 20:06 -25.38711 18.05666 35018 ft 467 kts 357°
2026-04-25 20:06 -25.32232 18.06334 35017 ft 467 kts 357°
2026-04-25 20:07 -25.25756 18.07003 35018 ft 467 kts 357°
2026-04-25 20:07 -25.19240 18.07674 35024 ft 467 kts 358°
2026-04-25 20:08 -25.12762 18.08340 35024 ft 468 kts 358°
2026-04-25 20:08 -25.06282 18.09006 35017 ft 468 kts 358°
2026-04-25 20:09 -24.99802 18.09672 35022 ft 468 kts 358°
2026-04-25 20:09 -24.93324 18.10337 35019 ft 468 kts 358°
2026-04-25 20:10 -24.86849 18.11000 35026 ft 468 kts 358°
2026-04-25 20:10 -24.80367 18.11664 35022 ft 468 kts 358°
2026-04-25 20:11 -24.73883 18.12327 35019 ft 468 kts 358°
2026-04-25 20:11 -24.67404 18.12989 35026 ft 468 kts 358°
2026-04-25 20:12 -24.60918 18.13651 35030 ft 468 kts 358°
2026-04-25 20:12 -24.56627 18.14088 35026 ft 468 kts 358°
2026-04-25 20:13 -24.47952 18.14972 35030 ft 468 kts 358°
2026-04-25 20:13 -24.41467 18.15632 35028 ft 468 kts 358°
2026-04-25 20:14 -24.34986 18.16291 35028 ft 468 kts 358°
2026-04-25 20:14 -24.28501 18.16949 35027 ft 468 kts 358°
2026-04-25 20:15 -24.22023 18.17606 35030 ft 468 kts 358°
2026-04-25 20:15 -24.15539 18.18263 35028 ft 468 kts 358°
2026-04-25 20:16 -24.09057 18.18919 35026 ft 468 kts 358°
2026-04-25 20:16 -24.02579 18.19574 35024 ft 468 kts 358°
2026-04-25 20:17 -23.96095 18.20229 35026 ft 468 kts 358°
2026-04-25 20:17 -23.92835 18.20556 34794 ft 472 kts 358°
2026-04-25 20:17 -23.89574 18.20884 34568 ft 471 kts 358°
2026-04-25 20:18 -23.86311 18.21215 34344 ft 470 kts 358°
2026-04-25 20:18 -23.83052 18.21544 34122 ft 471 kts 358°
2026-04-25 20:18 -23.79785 18.21873 33874 ft 472 kts 358°
2026-04-25 20:18 -23.76514 18.22201 33614 ft 473 kts 358°
2026-04-25 20:19 -23.73233 18.22531 33374 ft 474 kts 358°
2026-04-25 20:19 -23.69953 18.22860 33126 ft 475 kts 358°
2026-04-25 20:19 -23.66660 18.23191 32879 ft 476 kts 359°
2026-04-25 20:19 -23.63361 18.23522 32636 ft 477 kts 359°
2026-04-25 20:20 -23.60055 18.23854 32394 ft 478 kts 359°
2026-04-25 20:20 -23.56746 18.24187 32085 ft 475 kts 359°
2026-04-25 20:20 -23.53469 18.24519 31610 ft 471 kts 359°
2026-04-25 20:20 -23.50219 18.24848 31153 ft 467 kts 359°
2026-04-25 20:21 -23.47000 18.25173 30693 ft 463 kts 359°
2026-04-25 20:21 -23.43800 18.25494 30211 ft 461 kts 359°
2026-04-25 20:21 -23.40616 18.25812 29669 ft 458 kts 359°
2026-04-25 20:21 -23.37451 18.26128 29151 ft 454 kts 359°
2026-04-25 20:22 -23.34317 18.26441 28659 ft 451 kts 359°
2026-04-25 20:22 -23.33303 18.26542 28494 ft 449 kts 359°
2026-04-25 20:22 -23.28123 18.27059 27698 ft 443 kts 360°
2026-04-25 20:22 -23.25064 18.27365 27232 ft 440 kts
2026-04-25 20:23 -23.22030 18.27667 26763 ft 437 kts
2026-04-25 20:23 -23.19014 18.27968 26304 ft 434 kts
2026-04-25 20:23 -23.16013 18.28266 25850 ft 431 kts
2026-04-25 20:23 -23.13038 18.28562 25370 ft 429 kts
2026-04-25 20:24 -23.10071 18.28857 24902 ft 427 kts
2026-04-25 20:24 -23.07113 18.29151 24433 ft 426 kts
2026-04-25 20:24 -23.04165 18.29445 23963 ft 425 kts
2026-04-25 20:24 -23.01230 18.29737 23458 ft 423 kts
2026-04-25 20:25 -22.98301 18.30028 22946 ft 421 kts
2026-04-25 20:25 -22.95395 18.30318 22464 ft 418 kts
2026-04-25 20:25 -22.92514 18.30605 21995 ft 414 kts
2026-04-25 20:25 -22.89652 18.30890 21523 ft 411 kts
2026-04-25 20:26 -22.86812 18.31172 21066 ft 408 kts
2026-04-25 20:26 -22.83991 18.31452 20605 ft 405 kts
2026-04-25 20:26 -22.81193 18.31729 20161 ft 402 kts
2026-04-25 20:26 -22.78412 18.32005 19698 ft 400 kts
2026-04-25 20:27 -22.75646 18.32227 19232 ft 397 kts 359°
2026-04-25 20:27 -22.72921 18.31912 18759 ft 393 kts 341°
2026-04-25 20:27 -22.70554 18.30510 18310 ft 387 kts 316°
2026-04-25 20:27 -22.68952 18.28220 17827 ft 381 kts 296°
2026-04-25 20:28 -22.67783 18.25666 17373 ft 377 kts 295°
2026-04-25 20:28 -22.66594 18.23154 16921 ft 374 kts 298°
2026-04-25 20:28 -22.65298 18.20727 16479 ft 371 kts 300°
2026-04-25 20:28 -22.63968 18.18350 16044 ft 367 kts 300°
2026-04-25 20:29 -22.63090 18.16789 15757 ft 365 kts 300°
2026-04-25 20:29 -22.61780 18.14447 15329 ft 362 kts 300°
2026-04-25 20:29 -22.60492 18.12118 14909 ft 359 kts 300°
2026-04-25 20:29 -22.59221 18.09797 14480 ft 357 kts 300°
2026-04-25 20:30 -22.57966 18.07494 14062 ft 354 kts 300°
2026-04-25 20:30 -22.56722 18.05203 13589 ft 350 kts 300°
2026-04-25 20:30 -22.55503 18.02957 13151 ft 343 kts 300°
2026-04-25 20:30 -22.54304 18.00748 12717 ft 337 kts 300°
2026-04-25 20:31 -22.53130 17.98584 12315 ft 330 kts 300°
2026-04-25 20:31 -22.51986 17.96477 12132 ft 318 kts 300°
2026-04-25 20:31 -22.50890 17.94460 11982 ft 305 kts 300°
2026-04-25 20:31 -22.49835 17.92521 11846 ft 293 kts 300°
2026-04-25 20:32 -22.48822 17.90657 11717 ft 282 kts 300°
2026-04-25 20:32 -22.47848 17.88865 11599 ft 271 kts 300°
2026-04-25 20:32 -22.46910 17.87141 11435 ft 262 kts 301°
2026-04-25 20:32 -22.46007 17.85482 11352 ft 248 kts 301°
2026-04-25 20:33 -22.45155 17.83918 11223 ft 235 kts 301°
2026-04-25 20:33 -22.44349 17.82438 11116 ft 224 kts 301°
2026-04-25 20:33 -22.43579 17.81028 11011 ft 213 kts 301°
2026-04-25 20:33 -22.43086 17.80126 10862 ft 207 kts 301°
2026-04-25 20:34 -22.42129 17.78379 10590 ft 199 kts 301°
2026-04-25 20:34 -22.41429 17.77100 10385 ft 197 kts 301°
2026-04-25 20:34 -22.40732 17.75827 10198 ft 197 kts 301°
2026-04-25 20:34 -22.40085 17.74528 9977 ft 197 kts 289°
2026-04-25 20:35 -22.39855 17.73075 9772 ft 196 kts 277°
2026-04-25 20:35 -22.39705 17.71612 9541 ft 196 kts 279°
2026-04-25 20:35 -22.39519 17.70160 9329 ft 195 kts 280°
2026-04-25 20:35 -22.39329 17.68720 9143 ft 192 kts 280°
2026-04-25 20:36 -22.39164 17.67290 8903 ft 191 kts 273°
2026-04-25 20:36 -22.39459 17.65930 8696 ft 182 kts 249°
2026-04-25 20:36 -22.39969 17.64731 8503 ft 171 kts 249°
2026-04-25 20:36 -22.40467 17.63573 8254 ft 170 kts 248°
2026-04-25 20:37 -22.40982 17.62415 8036 ft 172 kts 247°
2026-04-25 20:37 -22.41508 17.61255 7818 ft 172 kts 247°
2026-04-25 20:37 -22.42036 17.60099 7594 ft 172 kts 248°
2026-04-25 20:37 -22.42563 17.58945 7385 ft 171 kts 247°
2026-04-25 20:38 -22.43085 17.57804 7171 ft 168 kts 248°
2026-04-25 20:38 -22.43603 17.56671 6969 ft 168 kts 248°
2026-04-25 20:38 -22.44125 17.55529 6762 ft 170 kts 248°
2026-04-25 20:38 -22.44646 17.54389 6553 ft 169 kts 248°
2026-04-25 20:39 -22.45164 17.53256 6365 ft 167 kts 246°
2026-04-25 20:39 -22.45674 17.52141 6171 ft 164 kts 245°
2026-04-25 20:39 -22.46177 17.51043 5981 ft 161 kts 245°
2026-04-25 20:39 -22.46510 17.50316 5840 ft 159 kts 244°
2026-04-25 20:40 -22.47188 17.48907 5602 ft 155 kts 242°
2026-04-25 20:40 -22.47660 17.47973 5548 ft 125 kts 243°
2026-04-25 20:40 -22.47982 17.47276 5574 ft 82 kts 244°
2026-04-25 20:40 -22.48166 17.46871 5579 ft 38 kts 242°
2026-04-25 20:41 -22.48221 17.46759 5584 ft 0 kts 242°
2026-04-25 20:41 -22.48258 17.46717 5586 ft 12 kts 220°
2026-04-25 20:41 -22.48322 17.46633 5592 ft 15 kts 246°
2026-04-25 20:42 -22.48364 17.46530 5594 ft 15 kts 245°
2026-04-25 20:42 -22.48406 17.46433 5599 ft 14 kts 245°
2026-04-25 20:42 -22.48464 17.46355 5602 ft 13 kts 208°
2026-04-25 20:42 -22.48547 17.46378 5607 ft 2 kts 160°
2026-04-25 20:43 -22.48554 17.46381 5604 ft 0 kts 160°